Location: Carnetin
(48.9010°N, 2.7059°E)
Time: 15:49:59
(UTC+00:00)

Cosmos 1825 - Pass Details

Date: 24 October 2021
Orbit: 501 x 504 km, 82.5° (Epoch: 27 November)

Event Time Altitude Azimuth Distance (km) Brightness Sun altitude
Rises 19:30:22 0° 343° (NNW) 2,609 6.2 -28.1°
Reaches altitude 10° 19:32:35 10° 335° (NNW) 1,720 5.3 -28.5°
Enters shadow 19:34:33 25° 314° (NW) 1,040 4.2 -28.8°
